EN

Hourly Weather Paderew

Today, 3 March, Wednesday

Time Temperature Precipitation Wind Pressure Humidity
00:00 +1°C° 0 mm 2 mps 762 mmHg 93%
01:00 -1°C° 0 mm 2 mps 762 mmHg 93%
02:00 +1°C° 0 mm 1 mps 762 mmHg 92%
03:00 +1°C° 0 mm 1 mps 762 mmHg 91%
04:00 +1°C° 0 mm 1 mps 761 mmHg 90%
05:00 +1°C° 0 mm 1 mps 761 mmHg 88%
06:00 +1°C° 0 mm 1 mps 761 mmHg 86%
07:00 +1°C° 0 mm 0 mps 761 mmHg 83%
08:00 +3°C° 0 mm 1 mps 761 mmHg 75%
09:00 +5°C° 0 mm 1 mps 761 mmHg 67%
10:00 +6°C° 0 mm 1 mps 761 mmHg 59%
11:00 +6°C° 0 mm 2 mps 760 mmHg 57%
12:00 +7°C° 0 mm 2 mps 759 mmHg 55%
13:00 +8°C° 0 mm 3 mps 759 mmHg 52%
14:00 +8°C° 0 mm 3 mps 758 mmHg 57%
15:00 +8°C° 0 mm 3 mps 757 mmHg 61%
16:00 +8°C° 0 mm 3 mps 756 mmHg 65%
17:00 +7°C° 0 mm 3 mps 756 mmHg 70%
18:00 +4°C° 0 mm 3 mps 755 mmHg 76%
19:00 +3°C° 0 mm 3 mps 755 mmHg 81%
20:00 +3°C° 0 mm 3 mps 754 mmHg 82%
21:00 +2°C° 0 mm 3 mps 753 mmHg 83%
22:00 +2°C° 0 mm 3 mps 753 mmHg 84%
23:00 +2°C° 0 mm 3 mps 752 mmHg 85%

Tomorrow, 4 March, Thursday

Time Temperature Precipitation Wind Pressure Humidity
00:00 +2°C° 0 mm 3 mps 752 mmHg 87%
01:00 +2°C° 0 mm 3 mps 751 mmHg 88%
02:00 +1°C° 0 mm 4 mps 750 mmHg 88%
03:00 +1°C° 0 mm 4 mps 749 mmHg 89%
04:00 +1°C° 0 mm 5 mps 748 mmHg 89%
05:00 +1°C° 0 mm 5 mps 748 mmHg 91%
06:00 +1°C° 0 mm 5 mps 748 mmHg 92%
07:00 +1°C° 0 mm 5 mps 747 mmHg 93%
08:00 +2°C° 0 mm 5 mps 747 mmHg 92%
09:00 +2°C° 0 mm 6 mps 747 mmHg 90%
10:00 +3°C° 0 mm 6 mps 747 mmHg 89%
11:00 +3°C° 0 mm 6 mps 747 mmHg 84%
12:00 +3°C° 0 mm 7 mps 747 mmHg 79%
13:00 +4°C° 0 mm 7 mps 747 mmHg 74%
14:00 +3°C° 0 mm 6 mps 746 mmHg 75%
15:00 +2°C° 0 mm 6 mps 746 mmHg 76%
16:00 +2°C° 0 mm 5 mps 746 mmHg 77%
17:00 +1°C° 0.1 mm 5 mps 746 mmHg 82%
18:00 +1°C° 0.1 mm 5 mps 747 mmHg 87%
19:00 0°C° 0.1 mm 5 mps 747 mmHg 92%
20:00 0°C° 0.1 mm 5 mps 747 mmHg 91%
21:00 -1°C° 0.1 mm 4 mps 748 mmHg 89%
22:00 -1°C° 0.1 mm 4 mps 748 mmHg 87%
23:00 -2°C° 0 mm 4 mps 748 mmHg 86%

Day after tomorrow, 5 March, Friday

Time Temperature Precipitation Wind Pressure Humidity
00:00 -1°C° 0 mm 3 mps 748 mmHg 84%
01:00 -2°C° 0 mm 3 mps 749 mmHg 82%
02:00 -2°C° 0 mm 3 mps 749 mmHg 82%
03:00 -2°C° 0 mm 3 mps 749 mmHg 82%
04:00 -4°C° 0 mm 4 mps 749 mmHg 82%
05:00 -4°C° 0 mm 4 mps 749 mmHg 80%
06:00 -4°C° 0 mm 4 mps 750 mmHg 79%
07:00 -4°C° 0 mm 4 mps 750 mmHg 77%
08:00 -3°C° 0 mm 4 mps 750 mmHg 70%
09:00 -2°C° 0 mm 4 mps 751 mmHg 63%
10:00 -1°C° 0 mm 5 mps 751 mmHg 56%
11:00 0°C° 0 mm 5 mps 751 mmHg 52%
12:00 0°C° 0 mm 5 mps 751 mmHg 47%
13:00 +1°C° 0 mm 6 mps 751 mmHg 42%
14:00 +1°C° 0 mm 5 mps 752 mmHg 42%
15:00 0°C° 0 mm 5 mps 752 mmHg 43%
16:00 0°C° 0 mm 5 mps 752 mmHg 43%
17:00 -1°C° 0 mm 4 mps 753 mmHg 47%
18:00 -2°C° 0 mm 4 mps 754 mmHg 51%
19:00 -4°C° 0 mm 3 mps 754 mmHg 55%
20:00 -4°C° 0 mm 3 mps 755 mmHg 55%
21:00 -3°C° 0 mm 2 mps 755 mmHg 56%
22:00 -4°C° 0 mm 2 mps 756 mmHg 56%
23:00 -4°C° 0 mm 2 mps 756 mmHg 56%

6 March, Saturday

Time Temperature Precipitation Wind Pressure Humidity
00:00 -4°C° 0 mm 2 mps 756 mmHg 56%
01:00 -4°C° 0 mm 2 mps 757 mmHg 55%
02:00 -4°C° 0 mm 2 mps 757 mmHg 56%
03:00 -4°C° 0 mm 2 mps 757 mmHg 57%
04:00 -4°C° 0 mm 2 mps 757 mmHg 58%
05:00 -4°C° 0 mm 3 mps 758 mmHg 62%
06:00 -4°C° 0 mm 3 mps 758 mmHg 66%
07:00 -4°C° 0 mm 3 mps 758 mmHg 70%
08:00 -2°C° 0 mm 3 mps 759 mmHg 65%
09:00 -1°C° 0 mm 3 mps 759 mmHg 59%
10:00 -1°C° 0 mm 3 mps 759 mmHg 54%
11:00 -1°C° 0 mm 4 mps 759 mmHg 50%
12:00 -1°C° 0 mm 4 mps 759 mmHg 46%
13:00 0°C° 0 mm 4 mps 759 mmHg 42%
14:00 0°C° 0 mm 4 mps 759 mmHg 44%
15:00 0°C° 0 mm 5 mps 759 mmHg 46%
16:00 -1°C° 0 mm 5 mps 759 mmHg 47%
17:00 -2°C° 0 mm 4 mps 758 mmHg 53%
18:00 -3°C° 0 mm 4 mps 758 mmHg 59%
19:00 -4°C° 0 mm 3 mps 758 mmHg 64%
20:00 -3°C° 0 mm 4 mps 758 mmHg 63%
21:00 -4°C° 0 mm 5 mps 757 mmHg 61%
22:00 -4°C° 0 mm 6 mps 757 mmHg 60%
23:00 -4°C° 0 mm 6 mps 756 mmHg 58%

7 March, Sunday

Time Temperature Precipitation Wind Pressure Humidity
00:00 -4°C° 0 mm 7 mps 756 mmHg 56%
01:00 -3°C° 0 mm 7 mps 755 mmHg 54%
02:00 -3°C° 0 mm 7 mps 755 mmHg 54%
03:00 -3°C° 0 mm 7 mps 754 mmHg 54%
04:00 -4°C° 0 mm 8 mps 753 mmHg 54%
05:00 -4°C° 0 mm 8 mps 753 mmHg 58%
06:00 -4°C° 0 mm 8 mps 753 mmHg 62%
07:00 -4°C° 0 mm 9 mps 752 mmHg 67%
08:00 -4°C° 0 mm 9 mps 752 mmHg 69%
09:00 -3°C° 0 mm 9 mps 752 mmHg 71%
10:00 -3°C° 0 mm 9 mps 752 mmHg 73%
11:00 -1°C° 0 mm 9 mps 752 mmHg 72%
12:00 -1°C° 0 mm 9 mps 751 mmHg 72%
13:00 -1°C° 0 mm 9 mps 751 mmHg 72%
14:00 -1°C° 0 mm 9 mps 751 mmHg 74%
15:00 -1°C° 0 mm 8 mps 751 mmHg 77%
16:00 -1°C° 0 mm 8 mps 751 mmHg 79%
17:00 -2°C° 0 mm 8 mps 751 mmHg 82%
18:00 -3°C° 0 mm 7 mps 751 mmHg 85%
19:00 -3°C° 0 mm 7 mps 751 mmHg 88%
20:00 -3°C° 0.1 mm 6 mps 751 mmHg 90%
21:00 -3°C° 0.1 mm 6 mps 751 mmHg 91%
22:00 -3°C° 0.1 mm 6 mps 751 mmHg 92%
23:00 -4°C° 0.1 mm 5 mps 751 mmHg 93%

8 March, Monday

Time Temperature Precipitation Wind Pressure Humidity
00:00 -3°C° 0.1 mm 4 mps 751 mmHg 93%
01:00 -2°C° 0.1 mm 3 mps 751 mmHg 94%
02:00 -2°C° 0.2 mm 3 mps 751 mmHg 94%
03:00 -3°C° 0.2 mm 2 mps 751 mmHg 94%
04:00 -3°C° 0.2 mm 2 mps 751 mmHg 94%
05:00 -3°C° 0.2 mm 2 mps 751 mmHg 93%
06:00 -3°C° 0.2 mm 2 mps 751 mmHg 92%
07:00 -3°C° 0.2 mm 2 mps 751 mmHg 90%
08:00 -3°C° 0.2 mm 2 mps 751 mmHg 86%
09:00 -2°C° 0.2 mm 2 mps 751 mmHg 81%
10:00 -2°C° 0.2 mm 2 mps 752 mmHg 76%
11:00 -1°C° 0 mm 2 mps 752 mmHg 70%
12:00 -1°C° 0 mm 3 mps 752 mmHg 64%
13:00 0°C° 0 mm 3 mps 752 mmHg 58%
14:00 -2°C° 0 mm 4 mps 752 mmHg 59%
15:00 -2°C° 0 mm 4 mps 752 mmHg 59%
16:00 -2°C° 0 mm 4 mps 752 mmHg 60%
17:00 -3°C° 0 mm 4 mps 753 mmHg 64%
18:00 -4°C° 0 mm 3 mps 753 mmHg 68%
19:00 -5°C° 0 mm 3 mps 754 mmHg 72%
20:00 -6°C° 0 mm 3 mps 755 mmHg 72%
21:00 -6°C° 0 mm 3 mps 755 mmHg 73%
22:00 -6°C° 0 mm 3 mps 756 mmHg 73%
23:00 -7°C° 0 mm 3 mps 756 mmHg 71%
Show more

We Need Your Consent

Meteoprog and our Service Providers may store and access personal data such as cookies, device identifiers or other similar technologies on your device and process such data to personalise content and ads, as well as provide social media features and to analyse the traffic.

  • Store and/or access information on your device

    Cookies, device identifiers or other information can be stored or accessed on your device for the purposes indicated above.

  • Personalised ads and content, ad and content measurement, audience insights, and products development

    Ads and content can be personalised based on a profile. More data can be added to better personalise ads and content. Ad and content performance can be measured. Insights about the audience who saw the ads and content can be derived. Such data can be used to develop or improve user’s experience, systems and software.

By clicking ‘I Agree’ you will allow the use of indicated cookies, device identifiers, web beacons or other similar technologies. Your settings can be changed in the browser on your device.

For certain purposes, legitimate interests may be relied on, rather than consent. You can read more about this in our Privacy and Cookie Policy.